WetterOnline ( https://www.wetteronline.de )

Wetter aktuell Titisee-Neustadt

Aktuelles Wetter: Feldberg/Schwarzwald (1493m)

6-stündlich | Neueste Meldungen
Ortszeit Temperatur Wetter
Do, 18.08. 14:00 12.0° C Nebel
Do, 18.08. 8:00 10.4° C Nebel
Do, 18.08. 2:00 12.1° C bedeckt
Mi, 17.08. 20:00 15.3° C bedeckt
Mi, 17.08. 14:00 16.6° C bewölkt
Mi, 17.08. 8:00 13.2° C bewölkt
Mi, 17.08. 2:00 17.1° C bewölkt
Di, 16.08. 20:00 18.0° C wolkenlos
Ortszeit Temperatur Wetter
Do, 18.08. 16:30 12.4° C Nebel
Do, 18.08. 16:20 12.4° C Nebel
Do, 18.08. 16:10 12.3° C Nebel
Do, 18.08. 16:00 12.4° C Nebel
Do, 18.08. 15:50 12.4° C Nebel
Do, 18.08. 15:40 12.5° C Nebel
Do, 18.08. 15:30 12.3° C Nebel
Do, 18.08. 15:00 12.4° C Nebel
Do, 18.08. 14:30 12.1° C Nebel
Do, 18.08. 14:00 12.0° C Nebel
Do, 18.08. 13:30 12.0° C Nebel
Ortszeit Relative Feuchte Sichtweite
Do, 18.08. 14:00 98% 10 km
Do, 18.08. 8:00 99% <100 m
Do, 18.08. 2:00 74% 30 km
Mi, 17.08. 20:00 55% 55 km
Mi, 17.08. 14:00 63% 55 km
Mi, 17.08. 8:00 73% >70 km
Mi, 17.08. 2:00 52% 45 km
Di, 16.08. 20:00 52% 50 km
Ortszeit Relative Feuchte Sichtweite
Do, 18.08. 16:30 99% <100 m
Do, 18.08. 16:20 99% -
Do, 18.08. 16:10 99% -
Do, 18.08. 16:00 99% <100 m
Do, 18.08. 15:50 99% -
Do, 18.08. 15:40 100% -
Do, 18.08. 15:30 99% <100 m
Do, 18.08. 15:00 99% <100 m
Do, 18.08. 14:30 99% <100 m
Do, 18.08. 14:00 98% 10 km
Do, 18.08. 13:30 98% <100 m
Ortszeit Niederschlagsmenge Niederschlagsart
Do, 18.08. 14:00 0.0 l/m2 in 6 Std. -
Do, 18.08. 8:00 20 l/m2 in 12 Std. Regen
Do, 18.08. 2:00 19 l/m2 in 6 Std. Regen
Mi, 17.08. 20:00 17 l/m2 in 12 Std. Regen
Mi, 17.08. 14:00 0.2 l/m2 in 6 Std. Regen
Mi, 17.08. 8:00 0.8 l/m2 in 12 Std. Regen
Mi, 17.08. 2:00 0.0 l/m2 in 6 Std. -
Di, 16.08. 20:00 0.0 l/m2 in 12 Std. -
Ortszeit Niederschlagsmenge Niederschlagsart
Do, 18.08. 16:30 0.0 l/m2 in 1 Std. -
Do, 18.08. 16:20 keine Meldung -
Do, 18.08. 16:10 keine Meldung -
Do, 18.08. 16:00 0.0 l/m2 in 1 Std. -
Do, 18.08. 15:50 keine Meldung -
Do, 18.08. 15:40 keine Meldung -
Do, 18.08. 15:30 0.0 l/m2 in 1 Std. -
Do, 18.08. 15:00 0.0 l/m2 in 1 Std. -
Do, 18.08. 14:30 0.0 l/m2 in 1 Std. -
Do, 18.08. 14:00 0.0 l/m2 in 1 Std. -
Do, 18.08. 13:30 0.0 l/m2 in 1 Std. -
Ortszeit Stärke Spitze Richtung
km/h Bft. km/h Grad Sektor
Do, 18.08. 14:00 7 2 32 50° NO
Do, 18.08. 8:00 7 2 54 350° N
Do, 18.08. 2:00 40 6 47 60° NO
Mi, 17.08. 20:00 22 4 61 40° NO
Mi, 17.08. 14:00 14 3 50 90° O
Mi, 17.08. 8:00 25 4 43 270° W
Mi, 17.08. 2:00 36 5 40 130° SO
Di, 16.08. 20:00 7 2 22 360° N
Ortszeit Stärke Spitze Richtung
km/h Bft. km/h Grad Sektor
Do, 18.08. 16:30 7 2 11 350° N
Do, 18.08. 16:20 7 2 - 350° N
Do, 18.08. 16:10 7 2 - 10° N
Do, 18.08. 16:00 9 2 17 20° N
Do, 18.08. 15:50 9 2 - 20° N
Do, 18.08. 15:40 9 2 - 10° N
Do, 18.08. 15:30 7 2 18 10° N
Do, 18.08. 15:00 11 2 17 30° NO
Do, 18.08. 14:30 9 2 17 30° NO
Do, 18.08. 14:00 7 2 14 50° NO
Do, 18.08. 13:30 7 2 13 40° NO
Ortszeit Untergrenze Bedeckung Gattung
total tief tief mittel hoch
Do, 18.08. 14:00 <30 m 8/8 0/8 - - -
Do, 18.08. 8:00 <30 m 8/8 0/8 - - -
Do, 18.08. 2:00 570 m 8/8 8/8 - - -
Mi, 17.08. 20:00 1800 m 8/8 8/8 - - -
Mi, 17.08. 14:00 2100 m 8/8 7/8 - - -
Mi, 17.08. 8:00 2400 m 8/8 4/8 - - -
Mi, 17.08. 2:00 2400 m 8/8 5/8 - - -
Di, 16.08. 20:00 - 0/8 0/8 - - -
Ortszeit Bedeckungsgrad in Achtel und Wolkenuntergrenze
Do, 18.08. 16:30 8(<30m)
Do, 18.08. 16:20 8(<30m)
Do, 18.08. 16:10 8
Do, 18.08. 16:00 8(<30m)
Do, 18.08. 15:50 8(<30m)
Do, 18.08. 15:40 8
Do, 18.08. 15:30 8(<30m)
Do, 18.08. 15:00 8(<30m)
Do, 18.08. 14:30 7(<30m)
Do, 18.08. 14:00 7(<30m) 8(360m) 8(510m)
Do, 18.08. 13:30 7(<30m) 7(150m) 8(510m)
Ortszeit Stationsdruck (hPa) Tendenz (hPa in 3 Std.)
Do, 18.08. 14:00 849 - 0,2
Do, 18.08. 8:00 849 - 0,1
Do, 18.08. 2:00 850 - 0,5
Mi, 17.08. 20:00 850 - 0,1
Mi, 17.08. 14:00 851 + 0,3
Mi, 17.08. 8:00 849 - 0,2
Mi, 17.08. 2:00 849 - 0,2
Di, 16.08. 20:00 849 - 0,2
Ortszeit Stationsdruck (hPa) Tendenz (hPa in 3 Std.)
Do, 18.08. 16:30 849 + 0,1
Do, 18.08. 16:20 849 keine Meldung
Do, 18.08. 16:10 849 keine Meldung
Do, 18.08. 16:00 849 - 0,5
Do, 18.08. 15:50 849 keine Meldung
Do, 18.08. 15:40 849 keine Meldung
Do, 18.08. 15:30 849 - 0,5
Do, 18.08. 15:00 849 - 0,5
Do, 18.08. 14:30 849 - 1,0
Do, 18.08. 14:00 849 - 0,2
Do, 18.08. 13:30 849 - 0,6
Ortszeit Schneehöhe (cm)
Do, 18.08. 14:00 0
Do, 18.08. 8:00 0
Do, 18.08. 2:00 0
Mi, 17.08. 20:00 0
Mi, 17.08. 14:00 0
Mi, 17.08. 8:00 0
Mi, 17.08. 2:00 0
Di, 16.08. 20:00 0
Ortszeit Schneehöhe (cm)
Do, 18.08. 16:30 0
Do, 18.08. 16:20 0
Do, 18.08. 16:10 0
Do, 18.08. 16:00 0
Do, 18.08. 15:50 0
Do, 18.08. 15:40 0
Do, 18.08. 15:30 0
Do, 18.08. 15:00 0
Do, 18.08. 14:30 0
Do, 18.08. 14:00 0
Do, 18.08. 13:30 0
Link zu dieser Seite / Seite empfehlen

Das Wetter in ...